This demonstration page uses our WeatherBlox Daily Observations layout. Learn more.

Hourly Observations for December 26, 2016

Temp ( °F °C ) Dew Point ( °F °C ) Humidity (%) Winds ( mph kmh ) Pressure ( in mb ) Visibility ( mi km ) Precip ( " mm )
12:54 am 00:54 Clear 35 1.7 25 -3.9 67 67 WSW 13 20 29.76 1008 10 16.0934 0 0
1:54 am 01:54 Clear 34 1.1 23 -5 64 64 WSW 16 26 29.79 1009 10 16.0934 0 0
2:54 am 02:54 Clear 32 0 18 -7.8 56 56 W 10 17 29.84 1011 10 16.0934 0 0
3:54 am 03:54 Clear 30 -1.1 16 -8.9 56 56 W 14 22 29.88 1012 10 16.0934 0 0
4:54 am 04:54 Clear 30 -1.1 14 -10 51 51 W 16 26 29.89 1012 10 16.0934 0 0
5:54 am 05:54 Clear 29 -1.7 15 -9.4 56 56 W 13 20 29.93 1013 10 16.0934 0 0
6:54 am 06:54 Clear 29 -1.7 15 -9.4 56 56 W 12 19 29.96 1015 10 16.0934 0 0
7:54 am 07:54 Sunny 29 -1.7 12 -11.1 49 49 WNW 17 28 30.01 1016 10 16.0934 0 0
8:54 am 08:54 Sunny 29 -1.7 11 -11.7 47 47 WNW 15 24 30.06 1018 10 16.0934 0 0
9:54 am 09:54 Sunny 31 -0.6 11 -11.7 43 43 WNW 15 24 30.09 1019 10 16.0934 0 0
10:54 am 10:54 Sunny 33 0.6 13 -10.6 43 43 WNW 20 31 30.12 1020 10 16.0934 0 0
11:54 am 11:54 Sunny 34 1.1 13 -10.6 42 42 W 23 37 30.12 1020 10 16.0934 0 0
12:54 pm 12:54 Sunny 36 2.2 16 -8.9 44 44 W 22 35 30.13 1020 10 16.0934 0 0
1:54 pm 13:54 Sunny 37 2.8 16 -8.9 42 42 W 18 30 30.14 1021 10 16.0934 0 0
2:54 pm 14:54 Sunny 38 3.3 16 -8.9 41 41 WNW 21 33 30.16 1021 10 16.0934 0 0
3:54 pm 15:54 Sunny 38 3.3 16 -8.9 41 41 WNW 21 33 30.19 1022 10 16.0934 0 0
4:54 pm 16:54 Sunny 37 2.8 18 -7.8 46 46 W 13 20 30.22 1023 10 16.0934 0 0
5:54 pm 17:54 Clear 35 1.7 19 -7.2 52 52 W 8 13 30.25 1024 10 16.0934 0 0
6:54 pm 18:54 Clear 33 0.6 19 -7.2 56 56 W 5 7 30.27 1025 10 16.0934 0 0
7:54 pm 19:54 Clear 30 -1.1 20 -6.7 66 66 WSW 3 6 30.29 1026 10 16.0934 0 0
8:54 pm 20:54 Clear 30 -1.1 21 -6.1 69 69 W 6 9 30.3 1026 10 16.0934 0 0
9:54 pm 21:54 Clear 30 -1.1 22 -5.6 72 72 W 9 15 30.31 1026 10 16.0934 0 0
10:54 pm 22:54 Clear 33 0.6 18 -7.8 54 54 WNW 9 15 30.31 1026 10 16.0934 0 0
11:54 pm 23:54 Clear 30 -1.1 20 -6.7 66 66 WSW 7 11 30.32 1027 10 16.0934 0 0

Powered by AerisWeather